Fort Polk, LA

2:20 PM CDT on April 28, 2017 (GMT -0500)
Fort Polk

Weather History for KAQV - October, 2011

Change the Weather History Date:

Thursday, October 20, 2011

  Actual Average (KPOE) Record (KPOE)
Temperature  
Mean Temperature 53 °F -  
Max Temperature 70 °F 75 °F 89 °F (2004)
Min Temperature 36 °F 55 °F 37 °F (2011)
Degree Days  
Heating Degree Days 12    
Growing Degree Days 3 (Base 50)    
Moisture  
Dew Point 35 °F    
Average Humidity 62    
Maximum Humidity 97    
Minimum Humidity 19    
Precipitation  
Precipitation 0.00 in - - ()
Sea Level Pressure  
Sea Level Pressure 30.09 in    
Wind  
Wind Speed 1 mph (NNW)    
Max Wind Speed 7 mph    
Max Gust Speed -    
Visibility 10 miles    
Events      
Averages and records for this station are not official NWS values.
T = Trace of Precipitation, MM = Missing Value Source: NWS Daily Summary

Daily Weather History Graph

Daily Weather History Graph

Search for Another Location

Airport or City:

Trip Planner

Search our weather history database for the weather conditions in past years. The results will help you decide how hot, cold, wet, or windy it might be!

Date:

Astronomy

Oct. 20, 2011 Rise Set
Actual Time 7:19 AM CDT 6:35 PM CDT
Civil Twilight 6:54 AM CDT 7:00 PM CDT
Nautical Twilight 6:26 AM CDT 7:28 PM CDT
Astronomical Twilight 5:58 AM CDT 7:57 PM CDT
Moon 12:31 AM CDT (10/20) 2:21 PM CDT (10/20)
Length of Visible Light 12h 05m
Length of Day
11h 16m
Last Quarter, 44% of the Moon is Illuminated
Oct 20
Last Quarter
Oct 26
New
Nov 2
First Quarter
Nov 10
Full
Nov 18
Last Quarter

Hourly Weather History & Observations

Time (CDT) Temp. Dew Point Humidity Pressure Visibility Wind Dir Wind Speed Gust Speed Precip Events Conditions
12:56 AM 41.0 °F 37.9 °F 89% 30.06 in 10.0 mi Calm Calm - N/A   Clear
1:56 AM 39.9 °F 37.0 °F 89% 30.07 in 10.0 mi Calm Calm - N/A   Clear
2:56 AM 37.9 °F 37.0 °F 97% 30.07 in 10.0 mi Calm Calm - N/A   Clear
3:56 AM 37.9 °F 36.0 °F 93% 30.07 in 10.0 mi Calm Calm - N/A   Clear
4:56 AM 36.0 °F 34.0 °F 93% 30.07 in 10.0 mi Calm Calm - N/A   Clear
5:56 AM 36.0 °F 34.0 °F 93% 30.08 in 10.0 mi Calm Calm - N/A   Clear
6:56 AM 36.0 °F 34.0 °F 93% 30.09 in 10.0 mi Calm Calm - N/A   Clear
7:56 AM 37.9 °F 36.0 °F 93% 30.11 in - Calm Calm - N/A   Clear
8:56 AM 52.0 °F 42.1 °F 69% 30.13 in 10.0 mi Calm Calm - N/A   Clear
9:56 AM 57.0 °F 41.0 °F 55% 30.14 in 10.0 mi Calm Calm - N/A   Clear
10:56 AM 62.1 °F 30.9 °F 31% 30.14 in 10.0 mi Variable 3.5 mph - N/A   Clear
11:56 AM 64.0 °F 30.0 °F 28% 30.12 in 10.0 mi Variable 3.5 mph - N/A   Clear
12:56 PM 66.0 °F 27.0 °F 23% 30.11 in 10.0 mi North 6.9 mph - N/A   Clear
1:56 PM 68.0 °F 27.0 °F 21% 30.09 in 10.0 mi Variable 6.9 mph - N/A   Clear
2:56 PM 68.0 °F 27.0 °F 21% 30.06 in 10.0 mi Variable 4.6 mph - N/A   Clear
3:56 PM 69.1 °F 25.0 °F 19% 30.05 in 10.0 mi Variable 3.5 mph - N/A   Clear
4:56 PM 70.0 °F 28.0 °F 21% 30.05 in 10.0 mi NNW 3.5 mph - N/A   Clear
5:56 PM 66.0 °F 30.9 °F 27% 30.05 in 10.0 mi Calm Calm - N/A   Clear
6:56 PM 55.9 °F 37.0 °F 49% 30.07 in 10.0 mi Calm Calm - N/A   Clear
7:56 PM 51.1 °F 39.9 °F 66% 30.09 in 10.0 mi Calm Calm - N/A   Clear
8:56 PM 48.9 °F 39.9 °F 71% 30.09 in 10.0 mi Calm Calm - N/A   Clear
9:56 PM 46.9 °F 39.9 °F 77% 30.12 in 10.0 mi Calm Calm - N/A   Clear
10:56 PM 46.0 °F 39.9 °F 79% 30.13 in 10.0 mi Calm Calm - N/A   Clear
11:56 PM 45.0 °F 39.0 °F 80% 30.13 in 10.0 mi Calm Calm - N/A   Clear